Regional Weather Roundup
Issued by NWS Cleveland, OH

Home | Current Version | Previous Version | Text Only | Print | Product List | Glossary On
Versions: 1 2 3 4 5 6 7 8 9 10 11 12 13 14 15 16 17 18 19 20 21 22 23 24 25 26 27 28 29 30 31 32 33 34 35 36 37 38 39 40 41 42 43 44 45 46 47 48 49 50
000
ASUS41 KCLE 281410
RWRCLE
OHIO REGIONAL WEATHER ROUNDUP
NATIONAL WEATHER SERVICE CLEVELAND, OH
1000 AM EDT TUE JUL 28 2015

NOTE: "FAIR" INDICATES FEW OR NO CLOUDS BELOW 12,000 FEET WITH NO
SIGNIFICANT WEATHER AND/OR OBSTRUCTIONS TO VISIBILITY.

OHZ001>008-015>018-024>027-034-035-043-044-281500-
   NORTHWEST OHIO

CITY           SKY/WX    TMP DP  RH WIND       PRES   REMARKS
DEFIANCE       SUNNY     79  66  64 E8        30.04S
FINDLAY        SUNNY     79  66  64 E5        30.04R
TOLEDO EXPRESS SUNNY     80  67  64 E6        30.04S
TOLEDO EXEC    SUNNY     82  67  60 VRB5      30.05S
LIMA           MOSUNNY   80  65  59 SE8       30.04S
$$

OHZ009>014-019>023-028>033-038-089-281500-
   NORTHEAST OHIO

CITY           SKY/WX    TMP DP  RH WIND       PRES   REMARKS
CLE-HOPKINS    SUNNY     81  64  56 CALM      30.06S
CLE-LAKEFRONT  SUNNY     79  65  62 N5        30.03S
CUY CO. ARPT   SUNNY     82  70  65 E7        30.05F
LORAIN-ELYRIA  SUNNY     79  64  60 CALM      30.05F
ASHTABULA      SUNNY     80  69  69 CALM      30.07S
AKRON-CANTON   SUNNY     81  69  67 E6        30.05F
WOOSTER        SUNNY     79  69  71 E5        30.06S
MANSFIELD      SUNNY     80  67  64 VRB3      30.06S
YOUNGSTOWN     SUNNY     80  69  69 SE3       30.06F
$$

OHZ042-051>053-060>062-070>072-077>081-281500-
  SOUTHWEST OHIO

CITY           SKY/WX    TMP DP  RH WIND       PRES   REMARKS
CINC-COVINGTON MOSUNNY   82  74  76 E5        30.01S
CINC-LUNKEN    MOSUNNY   79  74  84 CALM      30.01R
HAMILTON       MOSUNNY   81  74  79 CALM      30.02R
DAYTON         MOSUNNY   80  70  71 E3        30.04S
WRIGHT-PAT AFB SUNNY     79  70  74 NE5       30.02S
DAYTON GENERAL   N/A     79  70  74 E3        30.02S
WILMINGTON     SUNNY     77  71  82 E5        30.03R
$$

OHZ036-037-039>041-045>050-054>059-063>069-073>076-082>088-281500-
  CENTRAL AND SOUTHEAST OHIO

CITY           SKY/WX    TMP DP  RH WIND       PRES   REMARKS
COLUMBUS       MOSUNNY   81  68  64 NE3       30.01F
OSU AIRPORT    MOSUNNY   79  67  66 CALM      30.03S
BOLTON FIELD   MOSUNNY   79  68  69 CALM      30.03S
RICKENBACK AFB CLOUDY    75  68  78 CALM      30.02R
NEWARK         MOSUNNY   78  67  68 VRB3      30.03S
MARION         SUNNY     81  65  58 SE5       30.05S
LANCASTER      MOSUNNY   80  69  69 NE3       30.02F
ZANESVILLE     SUNNY     78  67  68 CALM      30.03S
NEW PHILLY     SUNNY     77  70  79 CALM      30.04F
$$


USA.gov is the U.S. government's official web portal to all federal, state and local government web resources and services.